weather.gov     
National Weather Service

Terminal Aerodrome Forecast
NWS Homepage
This page is being discontinued on March 12, 2014.
The same data is available at this site. Please update your bookmarks.
Thank you, and we apologize for the inconvenience.
Please send an email to SR-SRH.Webmaster@noaa.gov with any concerns.


Current Version
Previous Version:    01  02  03  04  05  06  07  08  09  10  11  12  13  14  15  16  17  18  19  20  21  22  23  24  25  26  27  28  29  30  
   31  32  33  34  35  36  37  38  39  40  41  42  43  44  45  46  47  48  49  50  51  52  53  54  55  56  57  58  59  60  
[Printable]
842
FTUS43 KLOT 240800 AAA
TAFRFD
TAF AMD
KRFD 240802Z 2408/2506 26006KT 1/2SM -DZ FG OVC003
     FM240900 28009KT 1SM -RA BR OVC004
     FM241300 27015G22KT 3SM -RA BR OVC007
     FM241600 28020G30KT 1SM -RASN BKN007 OVC012
     FM241800 26021G32KT 2SM -SN SCT007 OVC015
     FM250100 25017G24KT 6SM -SN SCT010 OVC020=


U.S. Dept. of Commerce
NOAA National Weather Service
1325 East West Highway
Silver Spring, MD 20910
E-mail: w-nws.webmaster@noaa.gov
Page last modified: May 16, 2007
NATIONAL WEATHER SERVICE: for Safety, for Work, for Fun - FOR LIFE